Location: Proctor
(47.8934°N, 114.3048°W)
Time: 02:49:39
(UTC+00:00)

DUCHIFAT 1 - Visible Passes

Search period start: 29 June 2022 00:00
Search period end: 09 July 2022 00:00
Orbit: 580 x 598 km, 98.0° (Epoch: 28 June)

Date Brightness Start Highest point End Pass type
(mag) Time Alt. Az. Time Alt. Az. Time Alt. Az.
29 Jun ? 10:13:45 10° NNE 10:17:57 74° ESE 10:22:03 11° S visible
30 Jun ? 10:21:21 10° NNE 10:25:34 88° ESE 10:29:44 10° SSW visible
01 Jul ? 08:55:44 10° ENE 08:57:11 12° E 08:58:38 10° ESE visible
01 Jul ? 10:28:58 10° N 10:33:11 78° WNW 10:37:23 10° SSW visible
02 Jul ? 09:02:42 10° ENE 09:04:53 14° E 09:07:04 10° ESE visible
02 Jul ? 10:36:36 10° N 10:40:47 65° WNW 10:44:56 10° SSW visible
03 Jul ? 09:09:53 10° NE 09:12:35 16° E 09:15:15 10° SE visible
03 Jul ? 10:44:15 10° N 10:48:22 54° WNW 10:52:27 10° SSW visible
04 Jul ? 09:17:11 10° NE 09:20:15 19° E 09:23:18 10° SE visible
04 Jul ? 10:51:54 10° N 10:55:56 45° WNW 10:59:57 10° SW visible
05 Jul ? 09:24:33 10° NE 09:27:55 23° E 09:31:15 10° SSE visible
05 Jul ? 10:59:35 10° N 11:03:30 38° WNW 11:07:24 10° SW visible
06 Jul ? 09:31:58 10° NE 09:35:34 27° E 09:39:08 10° SSE visible
06 Jul ? 11:07:17 10° N 11:11:03 33° WNW 11:14:49 10° SW visible
07 Jul ? 09:39:24 10° NNE 09:43:12 31° E 09:46:51 11° SSE visible
08 Jul ? 09:46:53 10° NNE 09:50:50 37° E 09:54:30 11° SSE visible
